Location: Bretagne
(43.8474°N, 0.4650°W)
Time: 08:24:07
(UTC+00:00)

USA 267 - Pass Details

Date: 15 January 2026
Orbit: 1101 x 1107 km, 123.0° (Epoch: 10 January)

Event Time Altitude Azimuth Distance (km) Brightness Sun altitude
Exits shadow 20:07:46 64° 301° (WNW) 1,216 3.5 -35.1°
Drops below altitude 10° 20:13:11 10° 310° (NW) 2,965 6.1 -36.1°
Sets 20:15:40 0° 311° (NW) 3,924 6.8 -36.6°
